Location: Pasarilla del Rebollar
(40.6790°N, 5.0062°W)
Time: 11:48:38
(UTC+00:00)

Cosmos 1842 Rocket - Pass Details

Date: 22 April 2026
Orbit: 600 x 625 km, 82.5° (Epoch: 15 May)

Event Time Altitude Azimuth Distance (km) Brightness Sun altitude
Exits shadow 03:46:06 30° 186° (S) 1,089 4.4 -18.7°
Maximum altitude 03:48:12 90° 102° (ESE) 606 3.4 -18.3°
Drops below altitude 10° 03:52:32 10° 8° (N) 1,954 6.7 -17.7°
Sets 03:54:46 0° 8° (N) 2,864 7.6 -17.3°
